Year,Month,Day,Hour,Minute,Value (Times are PST for temperature in C)
2008,07,24,00,00,12.50
2008,07,24,00,01,12.50
2008,07,24,00,02,12.50
2008,07,24,00,03,12.50
2008,07,24,00,04,12.50
2008,07,24,00,05,12.50
2008,07,24,00,06,12.50
2008,07,24,00,07,12.50
2008,07,24,00,08,12.50
2008,07,24,00,09,12.50
2008,07,24,00,10,12.50
2008,07,24,00,11,12.60
2008,07,24,00,12,12.60
2008,07,24,00,13,12.50
2008,07,24,00,14,12.50
2008,07,24,00,15,12.50
2008,07,24,00,16,12.50
2008,07,24,00,17,12.50
2008,07,24,00,18,12.40
2008,07,24,00,19,12.40
2008,07,24,00,20,12.40
2008,07,24,00,21,12.30
2008,07,24,00,22,12.30
2008,07,24,00,23,12.20
2008,07,24,00,24,12.20
2008,07,24,00,25,12.10
2008,07,24,00,26,12.10
2008,07,24,00,27,12.10
2008,07,24,00,28,12.00
2008,07,24,00,29,12.00
2008,07,24,00,30,11.90
2008,07,24,00,31,11.90
2008,07,24,00,32,11.90
2008,07,24,00,33,11.80
2008,07,24,00,34,11.80
2008,07,24,00,35,11.80
2008,07,24,00,36,11.80
2008,07,24,00,37,11.80
2008,07,24,00,38,11.80
2008,07,24,00,39,11.80
2008,07,24,00,40,11.70
2008,07,24,00,41,11.70
2008,07,24,00,42,11.60
2008,07,24,00,43,11.50
2008,07,24,00,44,11.50
2008,07,24,00,45,11.50
2008,07,24,00,46,11.40
2008,07,24,00,47,11.40
2008,07,24,00,48,11.40
2008,07,24,00,49,11.40
2008,07,24,00,50,11.40
2008,07,24,00,51,11.40
2008,07,24,00,52,11.30
2008,07,24,00,53,11.30
2008,07,24,00,54,11.30
2008,07,24,00,55,11.30
2008,07,24,00,56,11.30
2008,07,24,00,57,11.30
2008,07,24,00,58,11.30
2008,07,24,00,59,11.20
2008,07,24,01,00,11.20
2008,07,24,01,01,11.20
2008,07,24,01,02,11.20
2008,07,24,01,03,11.10
2008,07,24,01,04,11.10
2008,07,24,01,05,11.10
2008,07,24,01,06,11.10
2008,07,24,01,07,11.00
2008,07,24,01,08,11.00
2008,07,24,01,09,10.90
2008,07,24,01,10,10.90
2008,07,24,01,11,10.90
2008,07,24,01,12,10.90
2008,07,24,01,13,10.90
2008,07,24,01,14,10.90
2008,07,24,01,15,10.90
2008,07,24,01,16,10.90
2008,07,24,01,17,11.00
2008,07,24,01,18,11.00
2008,07,24,01,19,11.00
2008,07,24,01,20,11.00
2008,07,24,01,21,11.00
2008,07,24,01,22,11.00
2008,07,24,01,23,11.00
2008,07,24,01,24,11.00
2008,07,24,01,25,10.90
2008,07,24,01,26,10.90
2008,07,24,01,27,10.90
2008,07,24,01,28,10.90
2008,07,24,01,29,10.90
2008,07,24,01,30,10.90
2008,07,24,01,31,11.00
2008,07,24,01,32,11.00
2008,07,24,01,33,11.00
2008,07,24,01,34,10.90
2008,07,24,01,35,10.90
2008,07,24,01,36,10.90
2008,07,24,01,37,10.80
2008,07,24,01,38,10.80
2008,07,24,01,39,10.70
2008,07,24,01,40,10.70
2008,07,24,01,41,10.60
2008,07,24,01,42,10.50
2008,07,24,01,43,10.40
2008,07,24,01,44,10.40
2008,07,24,01,45,10.30
2008,07,24,01,46,10.30
2008,07,24,01,47,10.20
2008,07,24,01,48,10.20
2008,07,24,01,49,10.20
2008,07,24,01,50,10.20
2008,07,24,01,51,10.20
2008,07,24,01,52,10.20
2008,07,24,01,53,10.20
2008,07,24,01,54,10.30
2008,07,24,01,55,10.30
2008,07,24,01,56,10.30
2008,07,24,01,57,10.40
2008,07,24,01,58,10.40
2008,07,24,01,59,10.50
2008,07,24,02,00,10.50
2008,07,24,02,01,10.60
2008,07,24,02,02,10.60
2008,07,24,02,03,10.60
2008,07,24,02,04,10.60
2008,07,24,02,05,10.60
2008,07,24,02,06,10.60
2008,07,24,02,07,10.60
2008,07,24,02,08,10.60
2008,07,24,02,09,10.50
2008,07,24,02,10,10.50
2008,07,24,02,11,10.50
2008,07,24,02,12,10.40
2008,07,24,02,13,10.40
2008,07,24,02,14,10.40
2008,07,24,02,15,10.40
2008,07,24,02,16,10.40
2008,07,24,02,17,10.40
2008,07,24,02,18,10.40
2008,07,24,02,19,10.40
2008,07,24,02,20,10.40
2008,07,24,02,21,10.40
2008,07,24,02,22,10.40
2008,07,24,02,23,10.40
2008,07,24,02,24,10.40
2008,07,24,02,25,10.40
2008,07,24,02,26,10.40
2008,07,24,02,27,10.30
2008,07,24,02,28,10.30
2008,07,24,02,29,10.30
2008,07,24,02,30,10.30
2008,07,24,02,31,10.30
2008,07,24,02,32,10.30
2008,07,24,02,33,10.30
2008,07,24,02,34,10.30
2008,07,24,02,35,10.30
2008,07,24,02,36,10.30
2008,07,24,02,37,10.30
2008,07,24,02,38,10.30
2008,07,24,02,39,10.20
2008,07,24,02,40,10.20
2008,07,24,02,41,10.20
2008,07,24,02,42,10.20
2008,07,24,02,43,10.20
2008,07,24,02,44,10.20
2008,07,24,02,45,10.20
2008,07,24,02,46,10.10
2008,07,24,02,47,10.10
2008,07,24,02,48,10.10
2008,07,24,02,49,10.10
2008,07,24,02,50,10.00
2008,07,24,02,51,10.00
2008,07,24,02,52,10.00
2008,07,24,02,53,10.00
2008,07,24,02,54,10.00
2008,07,24,02,55,10.00
2008,07,24,02,56,10.00
2008,07,24,02,57,9.90
2008,07,24,02,58,9.90
2008,07,24,02,59,9.90
2008,07,24,03,00,9.80
2008,07,24,03,01,9.80
2008,07,24,03,02,9.90
2008,07,24,03,03,9.90
2008,07,24,03,04,9.90
2008,07,24,03,05,9.90
2008,07,24,03,06,10.00
2008,07,24,03,07,10.00
2008,07,24,03,08,10.00
2008,07,24,03,09,10.00
2008,07,24,03,10,10.10
2008,07,24,03,11,10.10
2008,07,24,03,12,10.10
2008,07,24,03,13,10.10
2008,07,24,03,14,10.10
2008,07,24,03,15,10.10
2008,07,24,03,16,10.10
2008,07,24,03,17,10.10
2008,07,24,03,18,10.10
2008,07,24,03,19,10.10
2008,07,24,03,20,10.00
2008,07,24,03,21,10.00
2008,07,24,03,22,10.00
2008,07,24,03,23,10.00
2008,07,24,03,24,10.00
2008,07,24,03,25,10.00
2008,07,24,03,26,10.00
2008,07,24,03,27,10.00
2008,07,24,03,28,9.90
2008,07,24,03,29,9.90
2008,07,24,03,30,9.90
2008,07,24,03,31,9.90
2008,07,24,03,32,9.90
2008,07,24,03,33,9.90
2008,07,24,03,34,9.90
2008,07,24,03,35,9.90
2008,07,24,03,36,9.80
2008,07,24,03,37,9.80
2008,07,24,03,38,9.80
2008,07,24,03,39,9.70
2008,07,24,03,40,9.70
2008,07,24,03,41,9.70
2008,07,24,03,42,9.70
2008,07,24,03,43,9.70
2008,07,24,03,44,9.70
2008,07,24,03,45,9.70
2008,07,24,03,46,9.70
2008,07,24,03,47,9.70
2008,07,24,03,48,9.70
2008,07,24,03,49,9.70
2008,07,24,03,50,9.70
2008,07,24,03,51,9.70
2008,07,24,03,52,9.70
2008,07,24,03,53,9.70
2008,07,24,03,54,9.70
2008,07,24,03,55,9.60
2008,07,24,03,56,9.60
2008,07,24,03,57,9.60
2008,07,24,03,58,9.70
2008,07,24,03,59,9.70
2008,07,24,04,00,9.70
2008,07,24,04,01,9.70
2008,07,24,04,02,9.70
2008,07,24,04,03,9.80
2008,07,24,04,04,9.70
2008,07,24,04,05,9.70
2008,07,24,04,06,9.70
2008,07,24,04,07,9.70
2008,07,24,04,08,9.70
2008,07,24,04,09,9.70
2008,07,24,04,10,9.70
2008,07,24,04,11,9.70
2008,07,24,04,12,9.70
2008,07,24,04,13,9.70
2008,07,24,04,14,9.80
2008,07,24,04,15,9.70
2008,07,24,04,16,9.70
2008,07,24,04,17,9.70
2008,07,24,04,18,9.70
2008,07,24,04,19,9.70
2008,07,24,04,20,9.70
2008,07,24,04,21,9.70
2008,07,24,04,22,9.80
2008,07,24,04,23,9.80
2008,07,24,04,24,9.80
2008,07,24,04,25,9.80
2008,07,24,04,26,9.80
2008,07,24,04,27,9.70
2008,07,24,04,28,9.70
2008,07,24,04,29,9.70
2008,07,24,04,30,9.70
2008,07,24,04,31,9.70
2008,07,24,04,32,9.70
2008,07,24,04,33,9.80
2008,07,24,04,34,9.80
2008,07,24,04,35,9.80
2008,07,24,04,36,9.80
2008,07,24,04,37,9.80
2008,07,24,04,38,9.80
2008,07,24,04,39,9.80
2008,07,24,04,40,9.70
2008,07,24,04,41,9.70
2008,07,24,04,42,9.60
2008,07,24,04,43,9.70
2008,07,24,04,44,9.70
2008,07,24,04,45,9.70
2008,07,24,04,46,9.70
2008,07,24,04,47,9.70
2008,07,24,04,48,9.70
2008,07,24,04,49,9.70
2008,07,24,04,50,9.70
2008,07,24,04,51,9.80
2008,07,24,04,52,9.80
2008,07,24,04,53,9.80
2008,07,24,04,54,9.70
2008,07,24,04,55,9.70
2008,07,24,04,56,9.70
2008,07,24,04,57,9.80
2008,07,24,04,58,9.80
2008,07,24,04,59,9.80
2008,07,24,05,00,9.80
2008,07,24,05,01,9.80
2008,07,24,05,02,9.70
2008,07,24,05,03,9.70
2008,07,24,05,04,9.60
2008,07,24,05,05,9.70
2008,07,24,05,06,9.70
2008,07,24,05,07,9.70
2008,07,24,05,08,9.70
2008,07,24,05,09,9.60
2008,07,24,05,10,9.60
2008,07,24,05,11,9.60
2008,07,24,05,12,9.60
2008,07,24,05,13,9.60
2008,07,24,05,14,9.50
2008,07,24,05,15,9.50
2008,07,24,05,16,9.40
2008,07,24,05,17,9.40
2008,07,24,05,18,9.50
2008,07,24,05,19,9.60
2008,07,24,05,20,9.60
2008,07,24,05,21,9.60
2008,07,24,05,22,9.60
2008,07,24,05,23,9.70
2008,07,24,05,24,9.70
2008,07,24,05,25,9.70
2008,07,24,05,26,9.80
2008,07,24,05,27,9.80
2008,07,24,05,28,9.80
2008,07,24,05,29,9.80
2008,07,24,05,30,9.80
2008,07,24,05,31,9.80
2008,07,24,05,32,9.80
2008,07,24,05,33,9.80
2008,07,24,05,34,9.80
2008,07,24,05,35,9.80
2008,07,24,05,36,9.80
2008,07,24,05,37,9.90
2008,07,24,05,38,9.80
2008,07,24,05,39,9.80
2008,07,24,05,40,9.90
2008,07,24,05,41,9.90
2008,07,24,05,42,9.80
2008,07,24,05,43,9.80
2008,07,24,05,44,9.60
2008,07,24,05,45,9.60
2008,07,24,05,46,9.50
2008,07,24,05,47,9.60
2008,07,24,05,48,9.60
2008,07,24,05,49,9.60
2008,07,24,05,50,9.60
2008,07,24,05,51,9.50
2008,07,24,05,52,9.50
2008,07,24,05,53,9.40
2008,07,24,05,54,9.40
2008,07,24,05,55,9.50
2008,07,24,05,56,9.60
2008,07,24,05,57,9.60
2008,07,24,05,58,9.70
2008,07,24,05,59,9.70
2008,07,24,06,00,9.70
2008,07,24,06,01,9.80
2008,07,24,06,02,9.90
2008,07,24,06,03,9.90
2008,07,24,06,04,10.10
2008,07,24,06,05,10.20
2008,07,24,06,06,10.20
2008,07,24,06,07,10.30
2008,07,24,06,08,10.40
2008,07,24,06,09,10.40
2008,07,24,06,10,10.50
2008,07,24,06,11,10.60
2008,07,24,06,12,10.70
2008,07,24,06,13,10.60
2008,07,24,06,14,10.70
2008,07,24,06,15,10.70
2008,07,24,06,16,10.70
2008,07,24,06,17,10.70
2008,07,24,06,18,10.70
2008,07,24,06,19,10.70
2008,07,24,06,20,10.70
2008,07,24,06,21,10.70
2008,07,24,06,22,10.70
2008,07,24,06,23,10.80
2008,07,24,06,24,10.80
2008,07,24,06,25,10.70
2008,07,24,06,26,10.70
2008,07,24,06,27,10.70
2008,07,24,06,28,10.70
2008,07,24,06,29,10.70
2008,07,24,06,30,10.60
2008,07,24,06,31,10.60
2008,07,24,06,32,10.50
2008,07,24,06,33,10.50
2008,07,24,06,34,10.50
2008,07,24,06,35,10.50
2008,07,24,06,36,10.50
2008,07,24,06,37,10.50
2008,07,24,06,38,10.50
2008,07,24,06,39,10.50
2008,07,24,06,40,10.50
2008,07,24,06,41,10.50
2008,07,24,06,42,10.50
2008,07,24,06,43,10.50
2008,07,24,06,44,10.60
2008,07,24,06,45,10.80
2008,07,24,06,46,10.80
2008,07,24,06,47,10.90
2008,07,24,06,48,10.90
2008,07,24,06,49,10.90
2008,07,24,06,50,11.00
2008,07,24,06,51,11.00
2008,07,24,06,52,11.00
2008,07,24,06,53,11.00
2008,07,24,06,54,11.00
2008,07,24,06,55,11.00
2008,07,24,06,56,11.00
2008,07,24,06,57,11.00
2008,07,24,06,58,11.10
2008,07,24,06,59,11.10
2008,07,24,07,00,11.20
2008,07,24,07,01,11.20
2008,07,24,07,02,11.30
2008,07,24,07,03,11.30
2008,07,24,07,04,11.40
2008,07,24,07,05,11.40
2008,07,24,07,06,11.40
2008,07,24,07,07,11.40
2008,07,24,07,08,11.50
2008,07,24,07,09,11.50
2008,07,24,07,10,11.60
2008,07,24,07,11,11.60
2008,07,24,07,12,11.60
2008,07,24,07,13,11.70
2008,07,24,07,14,11.70
2008,07,24,07,15,11.70
2008,07,24,07,16,11.70
2008,07,24,07,17,11.70
2008,07,24,07,18,11.80
2008,07,24,07,19,11.80
2008,07,24,07,20,11.80
2008,07,24,07,21,11.90
2008,07,24,07,22,12.00
2008,07,24,07,23,12.00
2008,07,24,07,24,12.10
2008,07,24,07,25,12.20
2008,07,24,07,26,12.20
2008,07,24,07,27,12.20
2008,07,24,07,28,12.20
2008,07,24,07,29,12.20
2008,07,24,07,30,12.30
2008,07,24,07,31,12.40
2008,07,24,07,32,12.40
2008,07,24,07,33,12.50
2008,07,24,07,34,12.60
2008,07,24,07,35,12.70
2008,07,24,07,36,12.80
2008,07,24,07,37,12.90
2008,07,24,07,38,13.00
2008,07,24,07,39,13.20
2008,07,24,07,40,13.30
2008,07,24,07,41,13.40
2008,07,24,07,42,13.60
2008,07,24,07,43,13.70
2008,07,24,07,44,13.80
2008,07,24,07,45,13.90
2008,07,24,07,46,14.00
2008,07,24,07,47,14.10
2008,07,24,07,48,14.20
2008,07,24,07,49,14.40
2008,07,24,07,50,14.40
2008,07,24,07,51,14.50
2008,07,24,07,52,14.60
2008,07,24,07,53,14.70
2008,07,24,07,54,14.80
2008,07,24,07,55,14.90
2008,07,24,07,56,15.00
2008,07,24,07,57,15.00
2008,07,24,07,58,15.00
2008,07,24,07,59,15.00
2008,07,24,08,00,15.00
2008,07,24,08,01,15.10
2008,07,24,08,02,15.10
2008,07,24,08,03,15.20
2008,07,24,08,04,15.20
2008,07,24,08,05,15.20
2008,07,24,08,06,15.30
2008,07,24,08,07,15.30
2008,07,24,08,08,15.40
2008,07,24,08,09,15.40
2008,07,24,08,10,15.40
2008,07,24,08,11,15.40
2008,07,24,08,12,15.40
2008,07,24,08,13,15.50
2008,07,24,08,14,15.50
2008,07,24,08,15,15.60
2008,07,24,08,16,15.60
2008,07,24,08,17,15.60
2008,07,24,08,18,15.60
2008,07,24,08,19,15.60
2008,07,24,08,20,15.70
2008,07,24,08,21,15.70
2008,07,24,08,22,15.70
2008,07,24,08,23,15.80
2008,07,24,08,24,15.80
2008,07,24,08,25,15.90
2008,07,24,08,26,15.90
2008,07,24,08,27,16.00
2008,07,24,08,28,16.00
2008,07,24,08,29,16.00
2008,07,24,08,30,16.00
2008,07,24,08,31,16.00
2008,07,24,08,32,15.90
2008,07,24,08,33,15.90
2008,07,24,08,34,16.00
2008,07,24,08,35,16.00
2008,07,24,08,36,16.00
2008,07,24,08,37,16.10
2008,07,24,08,38,16.10
2008,07,24,08,39,16.10
2008,07,24,08,40,16.10
2008,07,24,08,41,16.10
2008,07,24,08,42,16.10
2008,07,24,08,43,16.10
2008,07,24,08,44,16.20
2008,07,24,08,45,16.20
2008,07,24,08,46,16.20
2008,07,24,08,47,16.30
2008,07,24,08,48,16.30
2008,07,24,08,49,16.30
2008,07,24,08,50,16.30
2008,07,24,08,51,16.40
2008,07,24,08,52,16.50
2008,07,24,08,53,16.60
2008,07,24,08,54,16.60
2008,07,24,08,55,16.50
2008,07,24,08,56,16.50
2008,07,24,08,57,16.40
2008,07,24,08,58,16.40
2008,07,24,08,59,16.40
2008,07,24,09,00,16.40
2008,07,24,09,01,16.40
2008,07,24,09,02,16.40
2008,07,24,09,03,16.40
2008,07,24,09,04,16.30
2008,07,24,09,05,16.30
2008,07,24,09,06,16.20
2008,07,24,09,07,16.30
2008,07,24,09,08,16.30
2008,07,24,09,09,16.20
2008,07,24,09,10,16.10
2008,07,24,09,11,16.10
2008,07,24,09,12,16.10
2008,07,24,09,13,16.10
2008,07,24,09,14,16.10
2008,07,24,09,15,16.10
2008,07,24,09,16,16.10
2008,07,24,09,17,16.10
2008,07,24,09,18,16.10
2008,07,24,09,19,16.20
2008,07,24,09,20,16.20
2008,07,24,09,21,16.20
2008,07,24,09,22,16.20
2008,07,24,09,23,16.20
2008,07,24,09,24,16.30
2008,07,24,09,25,16.20
2008,07,24,09,26,16.20
2008,07,24,09,27,16.30
2008,07,24,09,28,16.20
2008,07,24,09,29,16.20
2008,07,24,09,30,16.20
2008,07,24,09,31,16.20
2008,07,24,09,32,16.20
2008,07,24,09,33,16.30
2008,07,24,09,34,16.30
2008,07,24,09,35,16.30
2008,07,24,09,36,16.40
2008,07,24,09,37,16.50
2008,07,24,09,38,16.40
2008,07,24,09,39,16.50
2008,07,24,09,40,16.50
2008,07,24,09,41,16.50
2008,07,24,09,42,16.50
2008,07,24,09,43,16.50
2008,07,24,09,44,16.50
2008,07,24,09,45,16.50
2008,07,24,09,46,16.40
2008,07,24,09,47,16.40
2008,07,24,09,48,16.40
2008,07,24,09,49,16.40
2008,07,24,09,50,16.40
2008,07,24,09,51,16.40
2008,07,24,09,52,16.50
2008,07,24,09,53,16.50
2008,07,24,09,54,16.50
2008,07,24,09,55,16.50
2008,07,24,09,56,16.60
2008,07,24,09,57,16.60
2008,07,24,09,58,16.70
2008,07,24,09,59,16.60
2008,07,24,10,00,16.60
2008,07,24,10,01,16.60
2008,07,24,10,02,16.70
2008,07,24,10,03,16.70
2008,07,24,10,04,16.70
2008,07,24,10,05,16.60
2008,07,24,10,06,16.60
2008,07,24,10,07,16.60
2008,07,24,10,08,16.60
2008,07,24,10,09,16.60
2008,07,24,10,10,16.50
2008,07,24,10,11,16.50
2008,07,24,10,12,16.60
2008,07,24,10,13,16.60
2008,07,24,10,14,16.60
2008,07,24,10,15,16.60
2008,07,24,10,16,16.60
2008,07,24,10,17,16.60
2008,07,24,10,18,16.70
2008,07,24,10,19,16.60
2008,07,24,10,20,16.60
2008,07,24,10,21,16.60
2008,07,24,10,22,16.60
2008,07,24,10,23,16.60
2008,07,24,10,24,16.50
2008,07,24,10,25,16.50
2008,07,24,10,26,16.50
2008,07,24,10,27,16.50
2008,07,24,10,28,16.60
2008,07,24,10,29,16.60
2008,07,24,10,30,16.50
2008,07,24,10,31,16.50
2008,07,24,10,32,16.50
2008,07,24,10,33,16.50
2008,07,24,10,34,16.50
2008,07,24,10,35,16.60
2008,07,24,10,36,16.60
2008,07,24,10,37,16.60
2008,07,24,10,38,16.60
2008,07,24,10,39,16.60
2008,07,24,10,40,16.60
2008,07,24,10,41,16.70
2008,07,24,10,42,16.80
2008,07,24,10,43,16.80
2008,07,24,10,44,16.80
2008,07,24,10,45,16.80
2008,07,24,10,46,16.80
2008,07,24,10,47,16.80
2008,07,24,10,48,16.80
2008,07,24,10,49,16.70
2008,07,24,10,50,16.70
2008,07,24,10,51,16.70
2008,07,24,10,52,16.70
2008,07,24,10,53,16.70
2008,07,24,10,54,16.60
2008,07,24,10,55,16.60
2008,07,24,10,56,16.50
2008,07,24,10,57,16.60
2008,07,24,10,58,16.60
2008,07,24,10,59,16.60
2008,07,24,11,00,16.60
2008,07,24,11,01,16.70
2008,07,24,11,02,16.70
2008,07,24,11,03,16.70
2008,07,24,11,04,16.80
2008,07,24,11,05,16.80
2008,07,24,11,06,16.80
2008,07,24,11,07,16.80
2008,07,24,11,08,16.80
2008,07,24,11,09,16.90
2008,07,24,11,10,16.90
2008,07,24,11,11,16.90
2008,07,24,11,12,16.90
2008,07,24,11,13,16.90
2008,07,24,11,14,16.90
2008,07,24,11,15,17.00
2008,07,24,11,16,17.00
2008,07,24,11,17,17.00
2008,07,24,11,18,16.90
2008,07,24,11,19,16.90
2008,07,24,11,20,17.00
2008,07,24,11,21,17.00
2008,07,24,11,22,17.10
2008,07,24,11,23,17.10
2008,07,24,11,24,17.10
2008,07,24,11,25,17.10
2008,07,24,11,26,17.10
2008,07,24,11,27,17.20
2008,07,24,11,28,17.10
2008,07,24,11,29,17.10
2008,07,24,11,30,17.10
2008,07,24,11,31,17.10
2008,07,24,11,32,17.10
2008,07,24,11,33,17.10
2008,07,24,11,34,17.20
2008,07,24,11,35,17.30
2008,07,24,11,36,17.30
2008,07,24,11,37,17.20
2008,07,24,11,38,17.10
2008,07,24,11,39,17.00
2008,07,24,11,40,16.90
2008,07,24,11,41,17.00
2008,07,24,11,42,17.10
2008,07,24,11,43,17.20
2008,07,24,11,44,17.20
2008,07,24,11,45,17.20
2008,07,24,11,46,17.20
2008,07,24,11,47,17.20
2008,07,24,11,48,17.20
2008,07,24,11,49,17.10
2008,07,24,11,50,17.10
2008,07,24,11,51,17.10
2008,07,24,11,52,17.10
2008,07,24,11,53,17.10
2008,07,24,11,54,17.10
2008,07,24,11,55,17.00
2008,07,24,11,56,17.00
2008,07,24,11,57,17.10
2008,07,24,11,58,17.10
2008,07,24,11,59,17.20
2008,07,24,12,00,17.20
2008,07,24,12,01,17.20
2008,07,24,12,02,17.20
2008,07,24,12,03,17.20
2008,07,24,12,04,17.20
2008,07,24,12,05,17.20
2008,07,24,12,06,17.20
2008,07,24,12,07,17.20
2008,07,24,12,08,17.30
2008,07,24,12,09,17.30
2008,07,24,12,10,17.20
2008,07,24,12,11,17.20
2008,07,24,12,12,17.20
2008,07,24,12,13,17.10
2008,07,24,12,14,17.10
2008,07,24,12,15,17.10
2008,07,24,12,16,17.10
2008,07,24,12,17,17.10
2008,07,24,12,18,17.10
2008,07,24,12,19,17.10
2008,07,24,12,20,17.10
2008,07,24,12,21,17.10
2008,07,24,12,22,17.20
2008,07,24,12,23,17.20
2008,07,24,12,24,17.30
2008,07,24,12,25,17.30
2008,07,24,12,26,17.30
2008,07,24,12,27,17.30
2008,07,24,12,28,17.40
2008,07,24,12,29,17.40
2008,07,24,12,30,17.50
2008,07,24,12,31,17.60
2008,07,24,12,32,17.70
2008,07,24,12,33,17.80
2008,07,24,12,34,17.80
2008,07,24,12,35,17.80
2008,07,24,12,36,17.70
2008,07,24,12,37,17.70
2008,07,24,12,38,17.60
2008,07,24,12,39,17.70
2008,07,24,12,40,17.80
2008,07,24,12,41,17.80
2008,07,24,12,42,17.80
2008,07,24,12,43,17.80
2008,07,24,12,44,17.90
2008,07,24,12,45,17.90
2008,07,24,12,46,17.90
2008,07,24,12,47,18.00
2008,07,24,12,48,18.00
2008,07,24,12,49,18.00
2008,07,24,12,50,18.00
2008,07,24,12,51,17.90
2008,07,24,12,52,17.80
2008,07,24,12,53,17.80
2008,07,24,12,54,17.90
2008,07,24,12,55,17.80
2008,07,24,12,56,17.80
2008,07,24,12,57,17.90
2008,07,24,12,58,18.00
2008,07,24,12,59,18.00
2008,07,24,13,00,18.00
2008,07,24,13,01,18.10
2008,07,24,13,02,18.10
2008,07,24,13,03,18.10
2008,07,24,13,04,18.10
2008,07,24,13,05,18.00
2008,07,24,13,06,18.00
2008,07,24,13,07,18.00
2008,07,24,13,08,18.00
2008,07,24,13,09,18.10
2008,07,24,13,10,18.10
2008,07,24,13,11,18.10
2008,07,24,13,12,18.20
2008,07,24,13,13,18.30
2008,07,24,13,14,18.40
2008,07,24,13,15,18.50
2008,07,24,13,16,18.50
2008,07,24,13,17,18.50
2008,07,24,13,18,18.50
2008,07,24,13,19,18.50
2008,07,24,13,20,18.40
2008,07,24,13,21,18.40
2008,07,24,13,22,18.30
2008,07,24,13,23,18.30
2008,07,24,13,24,18.30
2008,07,24,13,25,18.40
2008,07,24,13,26,18.40
2008,07,24,13,27,18.40
2008,07,24,13,28,18.50
2008,07,24,13,29,18.40
2008,07,24,13,30,18.40
2008,07,24,13,31,18.40
2008,07,24,13,32,18.40
2008,07,24,13,33,18.40
2008,07,24,13,34,18.40
2008,07,24,13,35,18.40
2008,07,24,13,36,18.50
2008,07,24,13,37,18.60
2008,07,24,13,38,18.60
2008,07,24,13,39,18.70
2008,07,24,13,40,18.70
2008,07,24,13,41,18.70
2008,07,24,13,42,18.80
2008,07,24,13,43,18.80
2008,07,24,13,44,18.80
2008,07,24,13,45,18.90
2008,07,24,13,46,19.00
2008,07,24,13,47,19.10
2008,07,24,13,48,19.20
2008,07,24,13,49,19.30
2008,07,24,13,50,19.30
2008,07,24,13,51,19.30
2008,07,24,13,52,19.30
2008,07,24,13,53,19.30
2008,07,24,13,54,19.30
2008,07,24,13,55,19.30
2008,07,24,13,56,19.30
2008,07,24,13,57,19.30
2008,07,24,13,58,19.30
2008,07,24,13,59,19.40
2008,07,24,14,00,19.50
2008,07,24,14,01,19.60
2008,07,24,14,02,19.60
2008,07,24,14,03,19.70
2008,07,24,14,04,19.80
2008,07,24,14,05,19.90
2008,07,24,14,06,20.00
2008,07,24,14,07,20.10
2008,07,24,14,08,20.20
2008,07,24,14,09,20.20
2008,07,24,14,10,20.20
2008,07,24,14,11,20.30
2008,07,24,14,12,20.30
2008,07,24,14,13,20.30
2008,07,24,14,14,20.20
2008,07,24,14,15,20.20
2008,07,24,14,16,20.10
2008,07,24,14,17,20.10
2008,07,24,14,18,20.10
2008,07,24,14,19,20.10
2008,07,24,14,20,20.20
2008,07,24,14,21,20.20
2008,07,24,14,22,20.30
2008,07,24,14,23,20.30
2008,07,24,14,24,20.30
2008,07,24,14,25,20.20
2008,07,24,14,26,20.10
2008,07,24,14,27,20.00
2008,07,24,14,28,19.90
2008,07,24,14,29,19.80
2008,07,24,14,30,19.80
2008,07,24,14,31,19.80
2008,07,24,14,32,19.80
2008,07,24,14,33,19.80
2008,07,24,14,34,19.80
2008,07,24,14,35,19.90
2008,07,24,14,36,20.00
2008,07,24,14,37,20.00
2008,07,24,14,38,20.10
2008,07,24,14,39,20.00
2008,07,24,14,40,19.90
2008,07,24,14,41,19.90
2008,07,24,14,42,19.90
2008,07,24,14,43,19.90
2008,07,24,14,44,20.00
2008,07,24,14,45,20.00
2008,07,24,14,46,20.10
2008,07,24,14,47,20.10
2008,07,24,14,48,20.00
2008,07,24,14,49,20.00
2008,07,24,14,50,19.90
2008,07,24,14,51,19.90
2008,07,24,14,52,19.90
2008,07,24,14,53,19.90
2008,07,24,14,54,20.00
2008,07,24,14,55,20.00
2008,07,24,14,56,20.10
2008,07,24,14,57,20.10
2008,07,24,14,58,20.10
2008,07,24,14,59,20.10
2008,07,24,15,00,20.20
2008,07,24,15,01,20.30
2008,07,24,15,02,20.30
2008,07,24,15,03,20.30
2008,07,24,15,04,20.30
2008,07,24,15,05,20.30
2008,07,24,15,06,20.30
2008,07,24,15,07,20.20
2008,07,24,15,08,20.30
2008,07,24,15,09,20.30
2008,07,24,15,10,20.30
2008,07,24,15,11,20.30
2008,07,24,15,12,20.30
2008,07,24,15,13,20.30
2008,07,24,15,14,20.30
2008,07,24,15,15,20.30
2008,07,24,15,16,20.30
2008,07,24,15,17,20.30
2008,07,24,15,18,20.40
2008,07,24,15,19,20.40
2008,07,24,15,20,20.40
2008,07,24,15,21,20.40
2008,07,24,15,22,20.50
2008,07,24,15,23,20.50
2008,07,24,15,24,20.60
2008,07,24,15,25,20.60
2008,07,24,15,26,20.60
2008,07,24,15,27,20.60
2008,07,24,15,28,20.60
2008,07,24,15,29,20.70
2008,07,24,15,30,20.80
2008,07,24,15,31,20.80
2008,07,24,15,32,20.80
2008,07,24,15,33,20.80
2008,07,24,15,34,20.90
2008,07,24,15,35,20.90
2008,07,24,15,36,20.90
2008,07,24,15,37,20.90
2008,07,24,15,38,21.00
2008,07,24,15,39,21.10
2008,07,24,15,40,21.20
2008,07,24,15,41,21.30
2008,07,24,15,42,21.30
2008,07,24,15,43,21.30
2008,07,24,15,44,21.20
2008,07,24,15,45,21.20
2008,07,24,15,46,21.10
2008,07,24,15,47,21.10
2008,07,24,15,48,21.10
2008,07,24,15,49,21.20
2008,07,24,15,50,21.20
2008,07,24,15,51,21.20
2008,07,24,15,52,21.20
2008,07,24,15,53,21.30
2008,07,24,15,54,21.20
2008,07,24,15,55,21.20
2008,07,24,15,56,21.20
2008,07,24,15,57,21.20
2008,07,24,15,58,21.20
2008,07,24,15,59,21.20
2008,07,24,16,00,21.30
2008,07,24,16,01,21.40
2008,07,24,16,02,21.40
2008,07,24,16,03,21.50
2008,07,24,16,04,21.50
2008,07,24,16,05,21.50
2008,07,24,16,06,21.50
2008,07,24,16,07,21.50
2008,07,24,16,08,21.50
2008,07,24,16,09,21.50
2008,07,24,16,10,21.50
2008,07,24,16,11,21.50
2008,07,24,16,12,21.50
2008,07,24,16,13,21.40
2008,07,24,16,14,21.50
2008,07,24,16,15,21.50
2008,07,24,16,16,21.50
2008,07,24,16,17,21.60
2008,07,24,16,18,21.60
2008,07,24,16,19,21.70
2008,07,24,16,20,21.70
2008,07,24,16,21,21.70
2008,07,24,16,22,21.70
2008,07,24,16,23,21.70
2008,07,24,16,24,21.70
2008,07,24,16,25,21.70
2008,07,24,16,26,21.70
2008,07,24,16,27,21.80
2008,07,24,16,28,21.80
2008,07,24,16,29,21.80
2008,07,24,16,30,21.80
2008,07,24,16,31,21.80
2008,07,24,16,32,21.80
2008,07,24,16,33,21.80
2008,07,24,16,34,21.80
2008,07,24,16,35,21.80
2008,07,24,16,36,21.80
2008,07,24,16,37,21.80
2008,07,24,16,38,21.90
2008,07,24,16,39,21.90
2008,07,24,16,40,21.90
2008,07,24,16,41,21.90
2008,07,24,16,42,22.00
2008,07,24,16,43,22.10
2008,07,24,16,44,22.10
2008,07,24,16,45,22.10
2008,07,24,16,46,22.20
2008,07,24,16,47,22.30
2008,07,24,16,48,22.30
2008,07,24,16,49,22.30
2008,07,24,16,50,22.30
2008,07,24,16,51,22.30
2008,07,24,16,52,22.30
2008,07,24,16,53,22.30
2008,07,24,16,54,22.30
2008,07,24,16,55,22.30
2008,07,24,16,56,22.30
2008,07,24,16,57,22.30
2008,07,24,16,58,22.30
2008,07,24,16,59,22.40
2008,07,24,17,00,22.40
2008,07,24,17,01,22.40
2008,07,24,17,02,22.40
2008,07,24,17,03,22.50
2008,07,24,17,04,22.50
2008,07,24,17,05,22.50
2008,07,24,17,06,22.40
2008,07,24,17,07,22.40
2008,07,24,17,08,22.50
2008,07,24,17,09,22.60
2008,07,24,17,10,22.60
2008,07,24,17,11,22.70
2008,07,24,17,12,22.70
2008,07,24,17,13,22.70
2008,07,24,17,14,22.70
2008,07,24,17,15,22.70
2008,07,24,17,16,22.70
2008,07,24,17,17,22.70
2008,07,24,17,18,22.70
2008,07,24,17,19,22.80
2008,07,24,17,20,22.80
2008,07,24,17,21,22.80
2008,07,24,17,22,22.80
2008,07,24,17,23,22.80
2008,07,24,17,24,22.90
2008,07,24,17,25,22.90
2008,07,24,17,26,22.90